This demonstration page uses our WeatherBlox Daily Observations layout. Learn more.

Hourly Observations for January 25, 2021

Temp ( °F °C ) Dew Point ( °F °C ) Humidity (%) Winds ( mph kmh ) Pressure ( in mb ) Visibility ( mi km ) Precip ( " mm )
12:15 am 00:15 Cloudy 32 0 19 -7 60 60 Calm 30.16 1021 10 16.0934 0 0
12:35 am 00:35 Cloudy 32 0 19 -7 60 60 Calm 30.15 1021 10 16.0934 0 0
12:55 am 00:55 Cloudy 32 0 19 -7 60 60 Calm 30.15 1021 10 16.0934 0 0
1:15 am 01:15 Cloudy 32 0 19 -7 60 60 Calm 30.15 1021 10 16.0934 0 0
1:35 am 01:35 Cloudy 32 0 21 -6 64 64 Calm 30.15 1021 10 16.0934 0 0
1:55 am 01:55 Cloudy 32 0 21 -6 64 64 Calm 30.15 1021 10 16.0934 0 0
2:15 am 02:15 Cloudy 32 0 21 -6 64 64 Calm 30.15 1021 10 16.0934 0 0
2:35 am 02:35 Cloudy 32 0 21 -6 64 64 Calm 30.15 1021 10 16.0934 0 0
2:55 am 02:55 Cloudy 32 0 21 -6 64 64 Calm 30.15 1021 10 16.0934 0 0
3:15 am 03:15 Cloudy 32 0 21 -6 64 64 NE 3 6 30.14 1021 10 16.0934 0 0
3:35 am 03:35 Cloudy 32 0 21 -6 64 64 Calm 30.14 1021 10 16.0934 0 0
3:55 am 03:55 Cloudy 32 0 21 -6 64 64 NE 3 6 30.14 1021 10 16.0934 0 0
4:15 am 04:15 Cloudy 32 0 21 -6 64 64 NE 3 6 30.14 1021 10 16.0934 0 0
4:35 am 04:35 Cloudy 32 0 21 -6 64 64 NE 6 9 30.13 1020 10 16.0934 0 0
4:55 am 04:55 Cloudy 32 0 21 -6 64 64 Calm 30.13 1020 10 16.0934 0 0
5:15 am 05:15 Cloudy 32 0 21 -6 64 64 NE 3 6 30.13 1020 10 16.0934 0 0
5:35 am 05:35 Cloudy 32 0 23 -5 69 69 NNE 3 6 30.14 1021 10 16.0934 0 0
5:55 am 05:55 Cloudy 32 0 21 -6 64 64 Calm 30.15 1021 10 16.0934 0 0
6:15 am 06:15 Cloudy 32 0 21 -6 64 64 NNE 5 7 30.15 1021 10 16.0934 0 0
6:35 am 06:35 Cloudy 32 0 23 -5 69 69 NNE 5 7 30.15 1021 10 16.0934 0 0
6:55 am 06:55 Cloudy 32 0 23 -5 69 69 NNE 3 6 30.16 1021 10 16.0934 0 0
7:15 am 07:15 Cloudy 32 0 23 -5 69 69 NNE 3 6 30.16 1021 10 16.0934 0 0
7:35 am 07:35 Cloudy 32 0 23 -5 69 69 NNE 6 9 30.16 1021 10 16.0934 0 0
7:55 am 07:55 Cloudy 32 0 23 -5 69 69 NE 5 7 30.15 1021 10 16.0934 0 0
8:15 am 08:15 Cloudy 32 0 23 -5 69 69 NE 3 6 30.15 1021 10 16.0934 0 0
8:35 am 08:35 Cloudy 32 0 23 -5 69 69 NNE 5 7 30.15 1021 10 16.0934 0 0
8:55 am 08:55 Cloudy 32 0 25 -4 75 75 NNE 5 7 30.16 1021 10 16.0934 0 0
9:15 am 09:15 Cloudy 32 0 27 -3 80 80 NNE 6 9 30.15 1021 10 16.0934 0 0
9:35 am 09:35 Cloudy 32 0 27 -3 80 80 NNE 5 7 30.15 1021 10 16.0934 0 0
9:55 am 09:55 Cloudy 32 0 28 -2 87 87 NNE 6 9 30.15 1021 10 16.0934 0 0
10:15 am 10:15 Cloudy 32 0 28 -2 87 87 N 5 7 30.17 1022 10 16.0934 0 0
10:35 am 10:35 Cloudy 32 0 28 -2 87 87 N 6 9 30.18 1022 10 16.0934 0 0
10:55 am 10:55 Cloudy 32 0 28 -2 87 87 NNE 5 7 30.19 1022 10 16.0934 0 0
11:15 am 11:15 Cloudy 32 0 28 -2 87 87 NNE 5 7 30.18 1022 10 16.0934 0 0
11:35 am 11:35 Cloudy 32 0 28 -2 87 87 NE 5 7 30.17 1022 10 16.0934 0 0
11:55 am 11:55 Cloudy 32 0 28 -2 87 87 NE 5 7 30.16 1021 10 16.0934 0 0
12:15 pm 12:15 Cloudy 34 1 28 -2 81 81 NE 3 6 30.16 1021 10 16.0934 0 0
12:35 pm 12:35 Cloudy 34 1 28 -2 81 81 NNE 5 7 30.13 1020 10 16.0934 0 0
12:55 pm 12:55 Cloudy 34 1 28 -2 81 81 NNE 5 7 30.12 1020 10 16.0934 0 0
1:15 pm 13:15 Cloudy 34 1 28 -2 81 81 ENE 5 7 30.12 1020 10 16.0934 0 0
1:35 pm 13:35 Cloudy 34 1 28 -2 81 81 NE 3 6 30.11 1020 10 16.0934 0 0
1:55 pm 13:55 Cloudy 34 1 28 -2 81 81 E 3 6 30.1 1019 10 16.0934 0 0
2:15 pm 14:15 Cloudy 36 2 28 -2 75 75 ENE 3 6 30.08 1019 10 16.0934 0 0
2:35 pm 14:35 Cloudy 36 2 28 -2 75 75 N 3 6 30.1 1019 10 16.0934 0 0
2:55 pm 14:55 Cloudy 36 2 28 -2 75 75 Calm 30.1 1019 10 16.0934 0 0
3:15 pm 15:15 Cloudy 36 2 28 -2 75 75 NE 6 9 30.08 1019 10 16.0934 0 0
3:35 pm 15:35 Cloudy 36 2 25 -4 65 65 NE 5 7 30.08 1019 10 16.0934 0 0
3:55 pm 15:55 Cloudy 36 2 23 -5 60 60 ENE 5 7 30.08 1019 10 16.0934 0 0
4:15 pm 16:15 Cloudy 36 2 23 -5 60 60 E 5 7 30.07 1018 10 16.0934 0 0
4:35 pm 16:35 Cloudy 36 2 23 -5 60 60 E 5 7 30.07 1018 10 16.0934 0 0
4:55 pm 16:55 Cloudy with Light Rain 36 2 23 -5 60 60 ENE 5 7 30.07 1018 10 16.0934 0 0
5:15 pm 17:15 Cloudy with Light Rain 36 2 25 -4 65 65 ENE 7 11 30.07 1018 10 16.0934 0 0
5:35 pm 17:35 Cloudy with Light Wintry Mix 34 1 27 -3 75 75 ENE 6 9 30.06 1018 10 16.0934 0 0
5:55 pm 17:55 Cloudy with Light Wintry Mix 34 1 28 -2 81 81 Calm 30.08 1019 7 11.26538 0 0
6:15 pm 18:15 Cloudy with Light Snow 34 1 30 -1 87 87 Calm 30.09 1019 5 8.0467 0 0
6:35 pm 18:35 Cloudy with Light Snow 32 0 30 -1 93 93 Calm 30.1 1019 4 6.43736 0 0
6:55 pm 18:55 Cloudy with Light Snow 32 0 30 -1 93 93 ENE 3 6 30.1 1019 5 8.0467 0 0
7:15 pm 19:15 Cloudy with Light Snow 32 0 30 -1 93 93 E 3 6 30.12 1020 5 8.0467 0 0
7:35 pm 19:35 Cloudy with Light Snow 32 0 30 -1 93 93 E 5 7 30.1 1019 3 4.82802 0 0
7:55 pm 19:55 Cloudy with Light Snow 32 0 30 -1 93 93 ENE 5 7 30.09 1019 3 4.82802 0 0
8:15 pm 20:15 Cloudy with Light Snow 30 -1 30 -1 100 100 E 7 11 30.07 1018 3 4.82802 0 0
8:35 pm 20:35 Cloudy with Light Wintry Mix 30 -1 30 -1 100 100 NNE 5 7 30.08 1019 5 8.0467 0 0
8:55 pm 20:55 Cloudy with Light Wintry Mix 30 -1 30 -1 100 100 NE 6 9 30.1 1019 7 11.26538 0 0
9:15 pm 21:15 Cloudy with Light Snow 30 -1 30 -1 100 100 NE 5 7 30.09 1019 2 3.21868 0 0
9:35 pm 21:35 Cloudy with Light Snow 30 -1 30 -1 100 100 ENE 8 13 30.08 1019 2 3.21868 0 0
9:55 pm 21:55 Cloudy with Light Wintry Mix 30 -1 30 -1 100 100 ENE 9 15 30.07 1018 3 4.82802 0 0
11:35 pm 23:35 Cloudy with Mist and Fog 30 -1 30 -1 100 100 ENE 3 6 30.08 1019 4 6.43736 0 0
11:55 pm 23:55 Cloudy with Mist and Fog 30 -1 30 -1 100 100 NE 5 7 30.07 1018 4 6.43736 0 0

Powered by AerisWeather